Location: Atherton
(17.2661°S, 145.4859°E)
Time: 11:22:09
(UTC+10:00)

Vanguard 1 - Pass Details

Date: 24 June 2025
Orbit: 649 x 3822 km, 34.2° (Epoch: 05 July)

Event Time Altitude Azimuth Distance (km) Brightness Sun altitude
Rises 13:22:39 0° 347° (NNW) 7,529 15.3 46.6°
Reaches altitude 10° 13:33:16 10° 10° (N) 6,865 15.1 45.6°
Maximum altitude 13:42:23 13° 34° (NE) 6,592 14.7 44.7°
Drops below altitude 10° 13:51:08 10° 58° (ENE) 6,667 14.4 43.7°
Sets 14:00:37 0° 80° (E) 7,178 14.3 42.5°
